Billings, MT

8:08 PM MST on January 22, 2018 (GMT -0700)
Billings Logan International

Weather History for KBIL - March, 2013

Change the Weather History Date:

Monday, March 11, 2013

  Actual Average Record
Temperature  
Mean Temperature 37 °F 36 °F  
Max Temperature 46 °F 47 °F 73 °F (2005)
Min Temperature 27 °F 26 °F -11 °F (1956)
Degree Days  
Heating Degree Days 28 29  
Month to date heating degree days 323 330  
Since 1 July heating degree days 4884 5295  
Cooling Degree Days 0 0  
Month to date cooling degree days 0 0  
Year to date cooling degree days 0 0  
Moisture  
Dew Point 20 °F    
Average Humidity 48    
Maximum Humidity 61    
Minimum Humidity 34    
Precipitation  
Precipitation T in 0.03 in 0.54 in (1954)
Month to date precipitation 0.17 0.29  
Year to date precipitation 1.05 1.25  
Snow  
Snow T in 0.40 in 5.20 in (1976)
Month to date snowfall 1.7 3.5  
Since 1 July snowfall 33.8 38.0  
Snow Depth 0.00 in    
Sea Level Pressure  
Sea Level Pressure 30.12 in    
Wind  
Wind Speed 14 mph (North)    
Max Wind Speed 31 mph    
Max Gust Speed 37 mph    
Visibility 10 miles    
Events      
T = Trace of Precipitation, MM = Missing Value Source: NWS Daily Summary

Daily Weather History Graph

Daily Weather History Graph

Search for Another Location

Airport or City:

Trip Planner

Search our weather history database for the weather conditions in past years. The results will help you decide how hot, cold, wet, or windy it might be!

Date:

Astronomy

Mar. 11, 2013 Rise Set
Actual Time 7:33 AM MDT 7:15 PM MDT
Civil Twilight 7:04 AM MDT 7:44 PM MDT
Nautical Twilight 6:29 AM MDT 8:19 PM MDT
Astronomical Twilight 5:54 AM MDT 8:54 PM MDT
Moon 7:07 AM MDT (3/11) 7:33 PM MDT (3/11)
Length of Visible Light 12h 40m
Length of Day
11h 41m
Waning Crescent, 0% of the Moon is Illuminated
Mar 11
Waning Crescent
Mar 11
New
Mar 19
First Quarter
Mar 27
Full
Apr 2
Last Quarter

Hourly Weather History & Observations

Time (MDT) Temp. Windchill Dew Point Humidity Pressure Visibility Wind Dir Wind Speed Gust Speed Precip Events Conditions
12:53 AM 46.0 °F 41.4 °F 19.9 °F 35% 29.98 in 10.0 mi NW 9.2 mph - 0.00 in   Overcast
1:53 AM 44.1 °F 37.1 °F 24.1 °F 45% 29.98 in 10.0 mi NNW 15.0 mph - N/A   Overcast
2:53 AM 41.0 °F 31.6 °F 25.0 °F 53% 29.98 in 10.0 mi WNW 20.7 mph - N/A   Scattered Clouds
3:53 AM 39.9 °F 31.1 °F 25.0 °F 55% 29.97 in 10.0 mi NW 17.3 mph - N/A   Overcast
4:53 AM 37.9 °F 27.9 °F 21.0 °F 51% 29.99 in 10.0 mi NW 19.6 mph - N/A   Mostly Cloudy
5:53 AM 37.0 °F 27.4 °F 21.0 °F 52% 30.03 in 10.0 mi NNW 17.3 mph - N/A   Scattered Clouds
6:53 AM 37.0 °F 28.9 °F 21.0 °F 52% 30.05 in 10.0 mi NNW 12.7 mph - N/A   Scattered Clouds
7:53 AM 33.1 °F 27.7 °F 21.0 °F 61% 30.05 in 10.0 mi North 5.8 mph - N/A   Scattered Clouds
8:53 AM 37.0 °F - 23.0 °F 57% 30.06 in 10.0 mi Calm Calm - N/A   Scattered Clouds
9:53 AM 39.9 °F 37.8 °F 23.0 °F 51% 30.05 in 10.0 mi SE 3.5 mph - N/A   Partly Cloudy
10:53 AM 45.0 °F 36.4 °F 19.0 °F 36% 30.02 in 10.0 mi NNW 23.0 mph 34.5 mph N/A   Mostly Cloudy
11:42 AM 43.0 °F 34.5 °F 21.0 °F 42% 30.02 in 10.0 mi NE 19.6 mph 26.5 mph N/A   Scattered Clouds
11:53 AM 43.0 °F 35.1 °F 21.9 °F 43% 30.04 in 10.0 mi NE 17.3 mph 24.2 mph N/A   Scattered Clouds
12:53 PM 44.1 °F 35.9 °F 21.0 °F 40% 30.05 in 10.0 mi NNW 19.6 mph 24.2 mph N/A   Mostly Cloudy
1:53 PM 41.0 °F 33.1 °F 25.0 °F 53% 30.07 in 10.0 mi NNE 15.0 mph 21.9 mph N/A   Mostly Cloudy
2:53 PM 39.0 °F 29.3 °F 24.1 °F 55% 30.10 in 10.0 mi NNE 19.6 mph 28.8 mph N/A   Mostly Cloudy
3:53 PM 37.0 °F 28.1 °F 21.9 °F 54% 30.14 in 10.0 mi NNE 15.0 mph - N/A   Mostly Cloudy
4:53 PM 35.6 °F 25.2 °F 21.2 °F 56% 30.11 in 10.0 mi NNE 18.4 mph 24.2 mph N/A   Mostly Cloudy
5:53 PM 35.1 °F 24.5 °F 18.0 °F 50% 30.21 in 10.0 mi NNE 18.4 mph - N/A   Scattered Clouds
6:53 PM 33.1 °F 25.5 °F 16.0 °F 50% 30.25 in 10.0 mi NNE 9.2 mph 20.7 mph N/A   Scattered Clouds
7:53 PM 32.0 °F 22.1 °F 12.9 °F 45% 30.29 in 10.0 mi NNE 13.8 mph 23.0 mph N/A   Overcast
8:53 PM 32.0 °F 21.6 °F 14.0 °F 48% 30.31 in 10.0 mi North 15.0 mph - N/A   Overcast
9:53 PM 30.9 °F 18.4 °F 14.0 °F 50% 30.32 in 10.0 mi North 20.7 mph 28.8 mph N/A   Overcast
10:53 PM 30.9 °F 22.2 °F 14.0 °F 50% 30.33 in 10.0 mi NW 10.4 mph - N/A   Overcast
11:53 PM 30.0 °F - 16.0 °F 56% 30.35 in 10.0 mi Calm Calm - N/A   Overcast